Flag for Germany Weather past 2 weeks in Halle, Saxony-Anhalt, Germany

Now
59 °F

Partly sunny.


Feels Like: 57 °F
Forecast: 51 / 55 °F
Wind: 10 mph from Northwest

Location: Leipzig-Schkeuditz

Current Time: Sep 21, 2014 at 8:19:12 PM

Latest Report: Sep 21, 2014 at 7:50 PM


Visibility: N/A

Pressure: 29.92 "Hg

Humidity: 88%

Dew point: 55 °F

Location of HalleLocation

Historic Weather in Halle — Graph

°F

Halle temperature yesterday

Maximum temperature yesterday: 75 °F (at 1:50 PM)
Minimum temperature yesterday: 61 °F (at 12:20 AM)
Average temperature yesterday: 64 °F

Past Weeks' High & Low Weather Summary

 TemperatureHumidityPressure
High77 °F (Sep 7, 1:50 PM)100% (Sep 7, 12:20 AM)30.15 "Hg (Sep 7, 12:20 AM)
Low50 °F (Sep 9, 6:20 AM)44% (Sep 17, 4:50 PM)29.86 "Hg (Sep 6, 7:50 PM)
Average62 °F88%30.01 "Hg
* Reported Sep 6 7:20 PM — Sep 21 7:20 PM, Halle, Weather by CustomWeather, © 2014

Note: Actual official high and low records may vary slightly from our data, if they occured in-between our weather recording intervals... More about our weather records

Advertising

Halle weather history for previous 24 hours

 ConditionsComfort  
Time TempWeatherWind HumidityBarometerVisibility
7:20 PM
Sep 21
59 °FBroken clouds.13 mph94%29.89 "HgN/A
6:50 PM59 °FLight rain. Broken clouds.9 mph100%29.89 "HgN/A
6:20 PM59 °FMostly cloudy.9 mph100%29.89 "HgN/A
5:50 PM61 °FLight rain. Mostly cloudy.10 mph88%29.89 "HgN/A
5:20 PM61 °FLight rain. Cloudy.12 mph88%29.89 "HgN/A
4:20 PM61 °FSprinkles. Scattered clouds.10 mph94%29.89 "Hg5 mi
3:50 PM63 °FSprinkles. Broken clouds.13 mph88%29.89 "Hg3 mi
3:20 PM63 °FSprinkles. Broken clouds.9 mph88%29.89 "Hg3 mi
2:50 PM64 °FBroken clouds.6 mph83%29.89 "HgN/A
2:20 PM64 °FBroken clouds.7 mph83%29.89 "HgN/A
1:50 PM64 °FBroken clouds.7 mph83%29.89 "HgN/A
1:20 PM63 °FBroken clouds.8 mph88%29.92 "Hg5 mi
12:50 PM63 °FBroken clouds.10 mph88%29.92 "Hg5 mi
12:20 PM63 °FBroken clouds.10 mph88%29.92 "Hg5 mi
11:20 AM63 °FFog.12 mph94%29.92 "Hg3 mi
10:50 AM61 °FDrizzle. Broken clouds.12 mph94%29.92 "Hg4 mi
10:20 AM61 °FSprinkles. Partly sunny.10 mph100%29.92 "Hg5 mi
9:50 AM61 °FPartly sunny.6 mph100%29.92 "Hg5 mi
9:20 AM61 °FBroken clouds.10 mph100%29.89 "Hg4 mi
8:50 AM61 °FSprinkles. Fog.10 mph100%29.89 "Hg3 mi
8:20 AM61 °FSprinkles. Partly sunny.12 mph100%29.89 "Hg4 mi
7:50 AM61 °FPassing clouds.8 mph100%29.89 "Hg4 mi
7:20 AM61 °FPassing clouds.8 mph100%29.89 "Hg5 mi
6:50 AM59 °FPassing clouds.9 mph100%29.89 "Hg5 mi
6:20 AM59 °FPassing clouds.8 mph100%29.89 "HgN/A
5:50 AM59 °FPassing clouds.8 mph100%29.89 "HgN/A
5:20 AM59 °FPartly cloudy.8 mph100%29.89 "HgN/A
4:50 AM57 °FClear.8 mph100%29.89 "Hg10 mi
4:20 AM57 °FClear.7 mph100%29.89 "Hg10 mi
3:50 AM57 °FClear.8 mph100%29.89 "Hg10 mi
3:20 AM57 °FClear.7 mph100%29.89 "Hg10 mi
2:50 AM59 °FClear.6 mph100%29.92 "Hg10 mi
2:20 AM59 °FClear.6 mph100%29.92 "Hg10 mi
1:50 AM59 °FClear.7 mph94%29.92 "Hg10 mi
1:20 AM59 °FPassing clouds.8 mph100%29.92 "HgN/A
12:20 AM61 °FPartly cloudy.8 mph94%29.92 "HgN/A
11:50 PM
Sep 20
61 °FSprinkles. Partly cloudy.9 mph94%29.92 "HgN/A
11:20 PM61 °FPartly cloudy.8 mph94%29.92 "HgN/A
10:50 PM61 °FPartly cloudy.8 mph94%29.92 "HgN/A
10:20 PM61 °FClear.7 mph94%29.92 "Hg10 mi
9:50 PM61 °FPartly cloudy.9 mph94%29.92 "HgN/A
9:20 PM61 °FPassing clouds.6 mph94%29.92 "HgN/A
8:50 PM61 °FPassing clouds.6 mph94%29.92 "HgN/A
8:20 PM61 °FPassing clouds.5 mph94%29.92 "HgN/A
Weather by CustomWeather, © 2014

See weather overviewHow to use our weather pages